When you browse on this site, cookies collect data to enhance your experience and personalize the content and advertising you see.
Visit our Privacy Policy to learn more. By continuing to use the site, you agree to this use of cookies and data.
  • In Sweden
  • List of Countries
  • For 7 days
  • Water Temperature
  • Satellite Maps
  • Weather Map
  • Weather Widgets
  • user-avatar
    Login

    Hourly Weather Gorale

    Today, 23 April, Tuesday

    Time Temperature Precipitation Wind Pressure Humidity
    00:00 +8°C° 0 mm 6 mps 745 mmHg 56%
    01:00 +7°C° 0 mm 6 mps 745 mmHg 55%
    02:00 +7°C° 0 mm 6 mps 745 mmHg 54%
    03:00 +6°C° 0 mm 7 mps 745 mmHg 54%
    04:00 +6°C° 0 mm 7 mps 744 mmHg 53%
    05:00 +6°C° 0 mm 7 mps 744 mmHg 53%
    06:00 +7°C° 0 mm 8 mps 744 mmHg 52%
    07:00 +9°C° 0 mm 7 mps 744 mmHg 52%
    08:00 +10°C° 0 mm 8 mps 744 mmHg 50%
    09:00 +12°C° 0 mm 9 mps 744 mmHg 48%
    10:00 +13°C° 0 mm 9 mps 744 mmHg 46%
    11:00 +14°C° 0 mm 10 mps 744 mmHg 45%
    12:00 +16°C° 0 mm 10 mps 744 mmHg 43%
    13:00 +17°C° 0 mm 10 mps 743 mmHg 42%
    14:00 +17°C° 0 mm 10 mps 743 mmHg 42%
    15:00 +17°C° 0 mm 9 mps 743 mmHg 43%
    16:00 +17°C° 0 mm 9 mps 742 mmHg 43%
    17:00 +16°C° 0 mm 9 mps 742 mmHg 46%
    18:00 +15°C° 0 mm 8 mps 742 mmHg 49%
    19:00 +12°C° 0 mm 7 mps 742 mmHg 52%
    20:00 +12°C° 0 mm 7 mps 743 mmHg 53%
    21:00 +12°C° 0 mm 8 mps 743 mmHg 53%
    22:00 +11°C° 0 mm 8 mps 743 mmHg 54%
    23:00 +11°C° 0 mm 8 mps 742 mmHg 55%

    Tomorrow, 24 April, Wednesday

    Time Temperature Precipitation Wind Pressure Humidity
    00:00 +11°C° 0 mm 7 mps 742 mmHg 56%
    01:00 +10°C° 0 mm 7 mps 742 mmHg 57%
    02:00 +10°C° 0 mm 7 mps 742 mmHg 62%
    03:00 +10°C° 0 mm 7 mps 742 mmHg 66%
    04:00 +9°C° 0 mm 8 mps 742 mmHg 70%
    05:00 +10°C° 0 mm 8 mps 742 mmHg 69%
    06:00 +10°C° 0 mm 8 mps 742 mmHg 68%
    07:00 +10°C° 0 mm 7 mps 742 mmHg 67%
    08:00 +12°C° 0 mm 8 mps 742 mmHg 64%
    09:00 +15°C° 0 mm 8 mps 742 mmHg 61%
    10:00 +16°C° 0 mm 8 mps 742 mmHg 58%
    11:00 +16°C° 0 mm 8 mps 742 mmHg 60%
    12:00 +15°C° 0 mm 7 mps 742 mmHg 62%
    13:00 +15°C° 0 mm 7 mps 742 mmHg 64%
    14:00 +15°C° 0 mm 7 mps 742 mmHg 66%
    15:00 +14°C° 0 mm 7 mps 742 mmHg 67%
    16:00 +14°C° 0 mm 7 mps 742 mmHg 68%
    17:00 +14°C° 0 mm 6 mps 742 mmHg 70%
    18:00 +14°C° 0 mm 6 mps 742 mmHg 72%
    19:00 +13°C° 0 mm 6 mps 742 mmHg 74%
    20:00 +13°C° 0 mm 6 mps 742 mmHg 75%
    21:00 +13°C° 0 mm 6 mps 742 mmHg 76%
    22:00 +13°C° 0 mm 6 mps 742 mmHg 77%
    23:00 +13°C° 0 mm 6 mps 742 mmHg 79%

    Day after tomorrow, 25 April, Thursday

    Time Temperature Precipitation Wind Pressure Humidity
    00:00 +12°C° 0 mm 5 mps 742 mmHg 82%
    01:00 +12°C° 0 mm 5 mps 742 mmHg 84%
    02:00 +12°C° 0 mm 5 mps 742 mmHg 84%
    03:00 +12°C° 0 mm 5 mps 742 mmHg 84%
    04:00 +12°C° 0 mm 5 mps 742 mmHg 85%
    05:00 +13°C° 0 mm 5 mps 742 mmHg 80%
    06:00 +15°C° 0 mm 5 mps 742 mmHg 76%
    07:00 +16°C° 0 mm 5 mps 742 mmHg 72%
    08:00 +18°C° 0 mm 4 mps 742 mmHg 66%
    09:00 +20°C° 0 mm 4 mps 742 mmHg 60%
    10:00 +21°C° 0 mm 4 mps 743 mmHg 54%
    11:00 +22°C° 0 mm 4 mps 742 mmHg 53%
    12:00 +22°C° 0 mm 4 mps 742 mmHg 52%
    13:00 +23°C° 0 mm 4 mps 742 mmHg 51%
    14:00 +22°C° 0 mm 3 mps 742 mmHg 52%
    15:00 +22°C° 0 mm 3 mps 742 mmHg 54%
    16:00 +21°C° 0 mm 2 mps 742 mmHg 55%
    17:00 +20°C° 0 mm 2 mps 742 mmHg 59%
    18:00 +19°C° 0 mm 2 mps 742 mmHg 63%
    19:00 +18°C° 0 mm 2 mps 742 mmHg 66%
    20:00 +17°C° 0 mm 2 mps 742 mmHg 68%
    21:00 +17°C° 0 mm 2 mps 742 mmHg 70%
    22:00 +16°C° 0 mm 2 mps 742 mmHg 72%
    23:00 +15°C° 0 mm 2 mps 742 mmHg 74%

    26 April, Friday

    Time Temperature Precipitation Wind Pressure Humidity
    00:00 +15°C° 0 mm 2 mps 742 mmHg 76%
    01:00 +15°C° 0 mm 2 mps 741 mmHg 79%
    02:00 +13°C° 0 mm 3 mps 741 mmHg 79%
    03:00 +13°C° 0 mm 3 mps 741 mmHg 80%
    04:00 +13°C° 0 mm 3 mps 740 mmHg 81%
    05:00 +15°C° 0 mm 4 mps 740 mmHg 76%
    06:00 +17°C° 0 mm 4 mps 740 mmHg 72%
    07:00 +19°C° 0 mm 4 mps 740 mmHg 67%
    08:00 +21°C° 0 mm 4 mps 740 mmHg 60%
    09:00 +23°C° 0 mm 4 mps 739 mmHg 52%
    10:00 +25°C° 0 mm 4 mps 739 mmHg 45%
    11:00 +26°C° 0 mm 4 mps 739 mmHg 44%
    12:00 +26°C° 0 mm 4 mps 738 mmHg 42%
    13:00 +27°C° 0 mm 4 mps 738 mmHg 41%
    14:00 +27°C° 0 mm 4 mps 738 mmHg 41%
    15:00 +27°C° 0 mm 5 mps 738 mmHg 42%
    16:00 +27°C° 0 mm 5 mps 738 mmHg 42%
    17:00 +25°C° 0 mm 4 mps 738 mmHg 48%
    18:00 +22°C° 0 mm 3 mps 737 mmHg 55%
    19:00 +21°C° 0 mm 2 mps 737 mmHg 61%
    20:00 +20°C° 0.1 mm 2 mps 737 mmHg 63%
    21:00 +19°C° 0.1 mm 3 mps 737 mmHg 66%
    22:00 +18°C° 0.1 mm 3 mps 737 mmHg 69%
    23:00 +18°C° 0 mm 3 mps 737 mmHg 69%

    27 April, Saturday

    Time Temperature Precipitation Wind Pressure Humidity
    00:00 +17°C° 0 mm 3 mps 737 mmHg 70%
    01:00 +17°C° 0 mm 3 mps 737 mmHg 70%
    02:00 +16°C° 0 mm 3 mps 737 mmHg 74%
    03:00 +14°C° 0 mm 3 mps 737 mmHg 79%
    04:00 +14°C° 0 mm 3 mps 736 mmHg 83%
    05:00 +14°C° 0 mm 4 mps 737 mmHg 83%
    06:00 +15°C° 0 mm 4 mps 737 mmHg 83%
    07:00 +17°C° 0 mm 4 mps 737 mmHg 83%
    08:00 +17°C° 0 mm 5 mps 737 mmHg 78%
    09:00 +17°C° 0 mm 6 mps 738 mmHg 73%
    10:00 +18°C° 0 mm 7 mps 738 mmHg 68%
    11:00 +16°C° 0.1 mm 7 mps 738 mmHg 72%
    12:00 +14°C° 0.1 mm 6 mps 738 mmHg 75%
    13:00 +12°C° 0.1 mm 5 mps 739 mmHg 78%
    14:00 +11°C° 0 mm 6 mps 739 mmHg 77%
    15:00 +11°C° 0 mm 6 mps 739 mmHg 75%
    16:00 +11°C° 0 mm 6 mps 739 mmHg 73%
    17:00 +12°C° 0 mm 5 mps 739 mmHg 73%
    18:00 +11°C° 0 mm 4 mps 740 mmHg 74%
    19:00 +11°C° 0 mm 3 mps 740 mmHg 74%
    20:00 +10°C° 0.1 mm 4 mps 741 mmHg 79%
    21:00 +10°C° 0.1 mm 4 mps 741 mmHg 83%
    22:00 +10°C° 0.1 mm 4 mps 741 mmHg 87%
    23:00 +10°C° 0 mm 4 mps 741 mmHg 88%

    28 April, Sunday

    Time Temperature Precipitation Wind Pressure Humidity
    00:00 +8°C° 0 mm 4 mps 741 mmHg 88%
    01:00 +9°C° 0 mm 3 mps 741 mmHg 89%
    02:00 +9°C° 0 mm 3 mps 741 mmHg 89%
    03:00 +9°C° 0 mm 3 mps 742 mmHg 89%
    04:00 +9°C° 0 mm 3 mps 742 mmHg 90%
    05:00 +9°C° 0 mm 3 mps 742 mmHg 87%
    06:00 +10°C° 0 mm 3 mps 742 mmHg 83%
    07:00 +11°C° 0 mm 4 mps 742 mmHg 80%
    08:00 +11°C° 0 mm 4 mps 742 mmHg 78%
    09:00 +12°C° 0 mm 4 mps 742 mmHg 75%
    10:00 +13°C° 0 mm 4 mps 743 mmHg 72%
    11:00 +14°C° 0.1 mm 3 mps 742 mmHg 67%
    12:00 +16°C° 0.1 mm 3 mps 742 mmHg 62%
    13:00 +17°C° 0.1 mm 3 mps 742 mmHg 56%
    14:00 +17°C° 0.1 mm 3 mps 742 mmHg 55%
    15:00 +17°C° 0.1 mm 3 mps 742 mmHg 53%
    16:00 +18°C° 0.1 mm 3 mps 742 mmHg 52%
    17:00 +16°C° 0 mm 2 mps 742 mmHg 59%
    18:00 +14°C° 0 mm 2 mps 743 mmHg 66%
    19:00 +13°C° 0 mm 2 mps 743 mmHg 74%
    20:00 +12°C° 0 mm 2 mps 743 mmHg 78%
    21:00 +10°C° 0 mm 2 mps 744 mmHg 82%
    22:00 +10°C° 0 mm 1 mps 744 mmHg 86%
    23:00 +10°C° 0 mm 1 mps 744 mmHg 88%
    Show more